Location: B�rgermoos
(47.6500°N, 9.0667°E)
Time: 07:17:16
(UTC+00:00)

Vanguard 1 - Pass Details

Date: 03 August 2021
Orbit: 652 x 3831 km, 34.3° (Epoch: 19 September)

Event Time Altitude Azimuth Distance (km) Brightness Sun altitude
Rises 13:51:45 0° 257° (WSW) 3,731 13.7 48.1°
Reaches altitude 10° 13:54:36 10° 242° (WSW) 3,094 13.6 47.7°
Maximum altitude 14:00:25 23° 193° (SSW) 2,903 13.3 46.9°
Drops below altitude 10° 14:09:02 10° 149° (SSE) 4,783 13.7 45.6°
Sets 14:15:00 0° 138° (SE) 6,414 14.1 44.7°
